Friday Harbor, WA

2:00 PM PST on February 19, 2017 (GMT -0800)
Friday Harbor

Weather History for KFHR - November, 2012

Change the Weather History Date:

Thursday, November 15, 2012

  Actual Average Record
Temperature  
Mean Temperature 42 °F -  
Max Temperature 46 °F 47 °F 59 °F (2001)
Min Temperature 37 °F 38 °F 24 °F (2014)
Degree Days  
Heating Degree Days 24    
Moisture  
Dew Point 40 °F    
Average Humidity 90    
Maximum Humidity 100    
Minimum Humidity 76    
Precipitation  
Precipitation 0.00 in - - ()
Sea Level Pressure  
Sea Level Pressure 30.10 in    
Wind  
Wind Speed 2 mph (North)    
Max Wind Speed 8 mph    
Max Gust Speed -    
Visibility 8 miles    
Events      
Averages and records for this station are not official NWS values.
T = Trace of Precipitation, MM = Missing Value Source: NWS Daily Summary

Daily Weather History Graph

Daily Weather History Graph

Search for Another Location

Airport or City:

Trip Planner

Search our weather history database for the weather conditions in past years. The results will help you decide how hot, cold, wet, or windy it might be!

Date:

Astronomy

Nov. 15, 2012 Rise Set
Actual Time 7:21 AM PST 4:32 PM PST
Civil Twilight 6:46 AM PST 5:06 PM PST
Nautical Twilight 6:08 AM PST 5:44 PM PST
Astronomical Twilight 5:31 AM PST 6:21 PM PST
Moon 9:28 AM PST (11/15) 6:23 PM PST (11/15)
Length of Visible Light 10h 19m
Length of Day
9h 11m
Waxing Crescent, 5% of the Moon is Illuminated
Nov 15
Waxing Crescent
Nov 20
First Quarter
Nov 28
Full
Dec 6
Last Quarter
Dec 13
New

Hourly Weather History & Observations

Time (PST) Temp. Windchill Dew Point Humidity Pressure Visibility Wind Dir Wind Speed Gust Speed Precip Events Conditions
12:53 AM 42.1 °F - 41.0 °F 96% 30.29 in 10.0 mi Calm Calm - N/A   Clear
1:53 AM 43.0 °F 41.3 °F 41.0 °F 93% 30.28 in 10.0 mi Variable 3.5 mph - N/A   Partly Cloudy
2:53 AM 43.0 °F - 42.1 °F 97% 30.26 in 10.0 mi Calm Calm - N/A   Overcast
3:53 AM 44.1 °F 42.5 °F 42.1 °F 93% 30.24 in 10.0 mi Variable 3.5 mph - N/A   Overcast
4:37 AM 44.6 °F 42.2 °F 42.8 °F 93% 30.23 in 7.0 mi Variable 4.6 mph - N/A   Mostly Cloudy
4:44 AM 44.6 °F 40.2 °F 42.8 °F 93% 30.23 in 6.0 mi North 8.1 mph - N/A   Mostly Cloudy
4:53 AM 44.1 °F 39.5 °F 42.1 °F 93% 30.22 in 4.0 mi North 8.1 mph - N/A   Overcast
5:53 AM 43.0 °F 41.3 °F 41.0 °F 93% 30.21 in 4.0 mi Variable 3.5 mph - N/A   Overcast
6:53 AM 42.1 °F 38.4 °F 41.0 °F 96% 30.19 in 4.0 mi North 5.8 mph - N/A   Overcast
7:42 AM 42.8 °F - 41.0 °F 93% 30.18 in 4.0 mi Calm Calm - N/A   Overcast
7:53 AM 43.0 °F - 41.0 °F 93% 30.19 in 4.0 mi Calm Calm - N/A   Overcast
8:53 AM 43.0 °F - 39.9 °F 89% 30.18 in 6.0 mi Calm Calm - N/A   Overcast
9:53 AM 43.0 °F 40.3 °F 39.9 °F 89% 30.15 in 7.0 mi North 4.6 mph - N/A   Overcast
10:53 AM 43.0 °F 41.3 °F 39.9 °F 89% 30.12 in 8.0 mi North 3.5 mph - N/A   Overcast
11:34 AM 44.6 °F 43.1 °F 39.2 °F 81% 30.10 in 10.0 mi North 3.5 mph - N/A   Overcast
11:53 AM 46.0 °F 44.8 °F 39.9 °F 79% 30.09 in 10.0 mi North 3.5 mph - N/A   Mostly Cloudy
12:12 PM 44.6 °F - 39.2 °F 81% 30.07 in 10.0 mi Calm Calm - N/A   Scattered Clouds
12:19 PM 44.6 °F 42.2 °F 39.2 °F 81% 30.07 in 10.0 mi NNW 4.6 mph - N/A   Mostly Cloudy
12:53 PM 45.0 °F 42.6 °F 39.9 °F 82% 30.06 in 10.0 mi NNW 4.6 mph - N/A   Mostly Cloudy
1:30 PM 46.4 °F 44.3 °F 39.2 °F 76% 30.06 in 10.0 mi Variable 4.6 mph - N/A   Scattered Clouds
1:53 PM 46.0 °F 43.1 °F 39.9 °F 79% 30.05 in 10.0 mi North 5.8 mph - N/A   Scattered Clouds
2:53 PM 46.0 °F - 39.9 °F 79% 30.04 in 10.0 mi Calm Calm - N/A   Clear
3:53 PM 45.0 °F - 39.0 °F 80% 30.02 in 10.0 mi Calm Calm - N/A   Clear
4:53 PM 39.9 °F - 37.9 °F 93% 30.01 in 10.0 mi Calm Calm - N/A   Clear
5:53 PM 37.9 °F - 36.0 °F 93% 29.99 in 8.0 mi Calm Calm - N/A   Clear
6:53 PM 37.0 °F - 36.0 °F 96% 29.99 in 6.0 mi Calm Calm - N/A   Clear
7:39 PM 37.4 °F - 35.6 °F 93% 29.98 in 6.0 mi Calm Calm - N/A   Mostly Cloudy
7:53 PM 37.0 °F - 37.0 °F 100% 29.98 in 7.0 mi Calm Calm - N/A   Overcast
8:53 PM 39.9 °F 37.8 °F 39.0 °F 97% 29.97 in 7.0 mi NNW 3.5 mph - N/A   Overcast
9:53 PM 37.9 °F - 37.0 °F 97% 29.97 in 7.0 mi Calm Calm - N/A   Overcast
10:53 PM 37.9 °F - 37.0 °F 97% 29.95 in 7.0 mi Calm Calm - N/A   Overcast
11:53 PM 41.0 °F - 39.0 °F 93% 29.95 in 7.0 mi Calm Calm - N/A   Overcast